Weather History for West Palm Beach, FL

Change the Weather History Date:

Tuesday, July 17, 2012

  Actual Average Record
Temperature  
Mean Temperature 82 °F 83 °F  
Max Temperature 89 °F 90 °F 96 °F (1981)
Min Temperature 75 °F 76 °F 69 °F (1913)
Degree Days  
Heating Degree Days 0 0  
Month to date heating degree days 0 0  
Since 1 June heating degree days 0 0  
Since 1 July heating degree days 0 0  
Cooling Degree Days 17 18  
Month to date cooling degree days 295 295  
Year to date cooling degree days 2082 1894  
Since 1 June cooling degree days 793 785  
Growing Degree Days 31 (Base 50)    
Moisture  
Dew Point 74 °F    
Average Humidity 79    
Maximum Humidity 94    
Minimum Humidity 63    
Precipitation  
Precipitation 1.10 in 0.16 in 2.71 in (1938)
Month to date precipitation 4.00 3.32  
Year to date precipitation 37.46 30.33  
Snow  
Snow 0.00 in - - ()
Month to date snowfall 0.0  
Since 1 June snowfall 0.0  
Since 1 July snowfall 0.0  
Snow Depth 0.00 in    
Sea Level Pressure  
Sea Level Pressure 30.02 in    
Wind  
Wind Speed 4 mph (SSW)    
Max Wind Speed 21 mph    
Max Gust Speed 30 mph    
Visibility 9 miles    
Events Fog , Rain , Thunderstorm    
T = Trace of Precipitation, MM = Missing Value Source: NWS Daily Summary

Daily Weather History Graph

Daily Weather History Graph

Search for Another Location

Airport:

Trip Planner

Search our weather history database for the weather conditions in past years. The results will help you decide how hot, cold, wet, or windy it might be!

Date:

Astronomy

Jul. 17, 2012 Rise Set
Actual Time 6:37 AM EDT 8:15 PM EDT
Civil Twilight 6:12 AM EDT 8:40 PM EDT
Nautical Twilight 5:41 AM EDT 9:11 PM EDT
Astronomical Twilight 5:09 AM EDT 9:43 PM EDT
Moon 5:12 AM EDT (7/17) 7:05 PM EDT (7/17)
Length of Visible Light 14h 28m
Length of Day
13h 37m
Waning Crescent, 2% of the Moon is Illuminated
Jul 17
Waning Crescent
Jul 19
New
Jul 26
First Quarter
Aug 1
Full
Aug 9
Last Quarter

Hourly Weather History & Observations

Time (EDT) Temp. Heat Index Dew Point Humidity Pressure Visibility Wind Dir Wind Speed Gust Speed Precip Events Conditions
12:53 AM 75.0 °F - 72.0 °F 90% 30.03 in 10.0 mi Calm Calm - N/A   Mostly Cloudy
1:53 AM 75.0 °F - 72.0 °F 90% 30.01 in 10.0 mi SSE 5.8 mph - N/A   Overcast
2:53 AM 75.9 °F - 72.0 °F 87% 30.00 in 10.0 mi Calm Calm - N/A   Overcast
3:53 AM 75.0 °F - 73.0 °F 94% 29.99 in 10.0 mi Calm Calm - 0.00 in   Overcast
4:53 AM 75.9 °F - 72.0 °F 87% 29.98 in 10.0 mi South 3.5 mph - N/A   Mostly Cloudy
5:53 AM 75.0 °F - 73.0 °F 94% 29.99 in 10.0 mi Calm Calm - N/A   Overcast
6:53 AM 75.9 °F - 73.0 °F 91% 30.01 in 10.0 mi Calm Calm - N/A   Overcast
7:53 AM 77.0 °F - 73.9 °F 90% 30.02 in 10.0 mi Calm Calm - N/A   Overcast
8:53 AM 79.0 °F - 73.9 °F 84% 30.03 in 10.0 mi South 4.6 mph - N/A   Mostly Cloudy
9:53 AM 82.0 °F 87.9 °F 73.9 °F 76% 30.04 in 10.0 mi SSW 4.6 mph - N/A   Mostly Cloudy
10:53 AM 84.0 °F 91.2 °F 73.9 °F 72% 30.02 in 10.0 mi West 9.2 mph - N/A   Mostly Cloudy
11:53 AM 86.0 °F 95.1 °F 75.0 °F 70% 30.02 in 10.0 mi WSW 9.2 mph - N/A   Mostly Cloudy
12:53 PM 87.1 °F 95.4 °F 73.9 °F 65% 30.03 in 10.0 mi WSW 6.9 mph - N/A   Overcast
1:46 PM 87.8 °F 95.6 °F 73.4 °F 62% 30.02 in 10.0 mi SE 13.8 mph 17.3 mph N/A Thunderstorm Thunderstorm
1:53 PM 84.9 °F 94.1 °F 75.9 °F 74% 30.01 in 10.0 mi SSE 6.9 mph 17.3 mph N/A Thunderstorm Thunderstorm
2:10 PM 77.0 °F - 71.6 °F 83% 30.05 in 0.5 mi SW 10.4 mph 17.3 mph 0.02 in Rain , Thunderstorm Heavy Thunderstorms and Rain
2:15 PM 77.0 °F - 73.4 °F 89% 30.06 in 0.2 mi SSW 13.8 mph 29.9 mph 0.24 in Fog , Rain , Thunderstorm Heavy Thunderstorms and Rain
2:22 PM 75.2 °F - 71.6 °F 89% 30.04 in 2.0 mi SSE 9.2 mph 29.9 mph 0.87 in Rain , Thunderstorm Heavy Thunderstorms and Rain
2:33 PM 75.2 °F - 73.4 °F 94% 30.02 in 3.0 mi SSE 5.8 mph - 1.01 in Rain , Thunderstorm Heavy Thunderstorms and Rain
2:53 PM 78.1 °F - 73.9 °F 87% 30.04 in 10.0 mi South 11.5 mph 16.1 mph 1.04 in Thunderstorm Thunderstorm
3:34 PM 75.2 °F - 73.4 °F 94% 30.03 in 10.0 mi SSW 3.5 mph - 0.01 in Rain , Thunderstorm Light Thunderstorms and Rain
3:53 PM 75.9 °F - 73.9 °F 94% 30.02 in 10.0 mi South 3.5 mph - 0.02 in Rain , Thunderstorm Light Thunderstorms and Rain
4:03 PM 77.0 °F - 73.4 °F 89% 30.03 in 10.0 mi SSW 3.5 mph - 0.00 in   Mostly Cloudy
4:53 PM 79.0 °F - 75.9 °F 90% 30.00 in 10.0 mi Variable 3.5 mph - 0.00 in Rain Light Rain
5:53 PM 82.0 °F 89.4 °F 75.9 °F 82% 30.01 in 10.0 mi South 6.9 mph - 0.00 in   Mostly Cloudy
6:53 PM 80.1 °F 85.4 °F 75.9 °F 87% 30.00 in 7.0 mi WSW 3.5 mph - 0.01 in Rain Light Rain
7:53 PM 78.1 °F - 75.0 °F 90% 30.01 in 10.0 mi Calm Calm - 0.03 in   Mostly Cloudy
8:53 PM 77.0 °F - 75.0 °F 94% 30.02 in 10.0 mi Calm Calm - N/A   Mostly Cloudy
9:53 PM 75.9 °F - 73.0 °F 91% 30.04 in 10.0 mi Calm Calm - N/A   Scattered Clouds
10:53 PM 75.0 °F - 73.0 °F 94% 30.05 in 10.0 mi Calm Calm - N/A   Scattered Clouds
11:53 PM 75.9 °F - 73.0 °F 91% 30.04 in 10.0 mi Calm Calm - N/A   Partly Cloudy